Craig, CO

7:31 AM MST on February 12, 2016 (GMT -0700)
Craig-Moffat

Weather History for KCAG - April, 2014

Change the Weather History Date:

Sunday, April 20, 2014

  Actual Average Record
Temperature  
Mean Temperature 48 °F 44 °F  
Max Temperature 68 °F 59 °F - ()
Min Temperature 28 °F 28 °F - ()
Degree Days  
Heating Degree Days 17 21  
Month to date heating degree days 488 473  
Since 1 July heating degree days 7560 7811  
Cooling Degree Days 0 0  
Month to date cooling degree days 0 0  
Year to date cooling degree days 0 0  
Moisture  
Dew Point 36 °F    
Average Humidity 65    
Maximum Humidity 96    
Minimum Humidity 34    
Precipitation  
Precipitation T in 0.06 in - ()
Month to date precipitation 0.32 1.01  
Year to date precipitation 2.58 4.00  
Sea Level Pressure  
Sea Level Pressure 30.12 in    
Wind  
Wind Speed 5 mph (NE)    
Max Wind Speed 36 mph    
Max Gust Speed 49 mph    
Visibility 10 miles    
Events Rain , Thunderstorm    
T = Trace of Precipitation, MM = Missing Value Source: NWS Daily Summary

Daily Weather History Graph

Daily Weather History Graph

Search for Another Location

Airport or City:

Trip Planner

Search our weather history database for the weather conditions in past years. The results will help you decide how hot, cold, wet, or windy it might be!

Date:

Astronomy

Apr. 20, 2014 Rise Set
Actual Time 6:24 AM MDT 7:54 PM MDT
Civil Twilight 5:55 AM MDT 8:23 PM MDT
Nautical Twilight 5:21 AM MDT 8:57 PM MDT
Astronomical Twilight 4:44 AM MDT 9:34 PM MDT
Moon 12:37 AM MDT (4/20) 10:47 AM MDT (4/20)
Length of Visible Light 14h 27m
Length of Day
13h 30m
Waning Gibbous, 68% of the Moon is Illuminated
Apr 20
Waning Gibbous
Apr 22
Last Quarter
Apr 29
New
May 6
First Quarter
May 14
Full

Hourly Weather History & Observations

Time (MDT) Temp. Windchill Dew Point Humidity Pressure Visibility Wind Dir Wind Speed Gust Speed Precip Events Conditions
12:53 AM 37.0 °F 34.5 °F 33.1 °F 86% 30.05 in 10.0 mi NE 3.5 mph - N/A   Clear
1:53 AM 37.9 °F - 35.1 °F 89% 30.06 in 10.0 mi Calm Calm - N/A   Clear
2:53 AM 33.1 °F - 32.0 °F 96% 30.08 in 10.0 mi Calm Calm - N/A   Clear
3:53 AM 34.0 °F - 32.0 °F 92% 30.08 in 10.0 mi Calm Calm - N/A   Clear
4:53 AM 30.0 °F - 28.9 °F 96% 30.08 in 10.0 mi Calm Calm - N/A   Clear
5:53 AM 30.9 °F - 28.9 °F 92% 30.09 in 10.0 mi Calm Calm - N/A   Partly Cloudy
6:53 AM 34.0 °F - 32.0 °F 92% 30.10 in 10.0 mi Calm Calm - N/A   Mostly Cloudy
7:53 AM 37.0 °F - 35.1 °F 93% 30.15 in 10.0 mi Calm Calm - N/A   Mostly Cloudy
8:53 AM 44.1 °F - 39.0 °F 82% 30.11 in 10.0 mi Calm Calm - N/A   Clear
9:53 AM 55.0 °F - 39.0 °F 55% 30.08 in 10.0 mi NNE 5.8 mph - N/A   Clear
10:53 AM 57.9 °F - 39.0 °F 49% 30.09 in 10.0 mi Variable 5.8 mph - N/A   Clear
11:53 AM 63.0 °F - 35.1 °F 35% 30.06 in 10.0 mi NE 3.5 mph - N/A   Clear
12:53 PM 63.0 °F - 34.0 °F 34% 30.06 in 10.0 mi Calm Calm - N/A   Clear
1:53 PM 63.0 °F - 33.1 °F 33% 30.02 in 10.0 mi Variable 3.5 mph - N/A   Scattered Clouds
2:28 PM 59.0 °F - 35.1 °F 41% 30.16 in 10.0 mi WNW 29.9 mph 43.7 mph N/A   Squalls
2:41 PM 52.0 °F - 37.0 °F 57% 30.20 in 9.0 mi NW 25.3 mph 48.3 mph N/A Thunderstorm Thunderstorm
2:53 PM 50.0 °F - 39.0 °F 66% 30.19 in 10.0 mi NW 21.9 mph 42.6 mph 0.00 in Rain , Thunderstorm Light Rain
3:22 PM 51.1 °F - 39.0 °F 63% 30.22 in 10.0 mi North 19.6 mph - 0.00 in   Overcast
3:53 PM 54.0 °F - 42.1 °F 64% 30.17 in 10.0 mi NE 6.9 mph - 0.00 in Rain Light Rain
4:53 PM 55.0 °F - 39.9 °F 57% 30.17 in 10.0 mi East 8.1 mph - 0.00 in   Overcast
5:53 PM 55.9 °F - 39.0 °F 53% 30.14 in 10.0 mi ESE 15.0 mph - N/A   Overcast
6:53 PM 55.9 °F - 37.9 °F 51% 30.12 in 10.0 mi East 13.8 mph - N/A   Mostly Cloudy
7:53 PM 51.1 °F - 39.9 °F 66% 30.14 in 10.0 mi ENE 10.4 mph - N/A   Clear
8:53 PM 48.9 °F - 39.9 °F 71% 30.16 in 10.0 mi ENE 6.9 mph - N/A   Overcast
9:53 PM 48.0 °F - 39.0 °F 71% 30.11 in 10.0 mi ENE 12.7 mph - 0.00 in   Partly Cloudy
10:53 PM 44.1 °F 42.5 °F 37.9 °F 79% 30.14 in 10.0 mi Variable 3.5 mph - N/A   Overcast
11:53 PM 45.0 °F 43.5 °F 37.9 °F 76% 30.13 in 10.0 mi SE 3.5 mph - N/A   Overcast